[[{"header":{"parameterUnit":"m.s-1","parameterCategory":1,"la1":30.2991,"la2":30.254,"lo1":-89.0895,"lo2":-89.0444,"dy":0.0017,"dx":0.0017,"nx":28,"ny":28,"refTime":"2024-03-29T09:00:00:Z","depth":0,"parameterNumber":2,"parameterNumberName":"U-component_of_WINDS"},"data":[0,0,0,0,0,0,0,0,0,0,0,0,0,0,0,0,0,0,0,0,0,0,0,0,0,0,0,0,0,0,0,0,0,0,0,0,0,0,0,0,0,0,0,0,0,0,0,0,0,0,0,0,0,0,0,0,0,0,-2.4453,-2.4453,0,-2.4501,-2.4501,-2.4502,-2.442,-2.4417,-2.4414,-2.4412,-2.4461,-2.4465,-2.4468,0,0,0,0,0,0,0,0,0,0,0,0,0,-2.429,-2.4293,-2.4453,-2.4454,-2.4454,-2.4501,-2.4501,-2.4502,-2.442,-2.4417,-2.4414,-2.441,-2.446,-2.4464,-2.4469,0,0,0,0,0,0,0,0,0,0,0,0,0,-2.4352,-2.4294,-2.4453,-2.4419,-2.4416,-2.4501,-2.4501,-2.4502,-2.4421,-2.4417,-2.4413,-2.4409,-2.4458,-2.4464,-2.4469,-2.4589,0,0,-2.4487,-2.449,0,0,0,0,0,0,0,0,-2.4348,-2.4358,-2.4423,-2.4421,-2.4419,-2.445,-2.4462,-2.4531,-2.4422,-2.4419,-2.4412,-2.4407,-2.4461,-2.4466,-2.4484,-2.4591,-2.4593,-2.4488,-2.4491,-2.4494,-2.4496,0,0,0,0,0,0,0,-2.4344,-2.4355,-2.4472,-2.4424,-2.4422,-2.4401,-2.4405,-2.4475,-2.4463,-2.4419,-2.4413,-2.442,-2.4458,-2.4479,-2.4485,-2.4594,-2.4488,-2.4493,-2.4496,-2.4499,-2.48,-2.4804,0,0,0,0,0,0,-2.4344,-2.4352,-2.447,-2.4473,-2.4372,-2.4407,-2.4412,-2.4444,-2.4462,-2.446,-2.4424,-2.4416,-2.4471,-2.4478,-2.4486,-2.4626,-2.4494,-2.4499,-2.4503,-2.4796,-2.4801,-2.4806,0,0,0,0,0,0,-2.4341,-2.4355,-2.4468,-2.4411,-2.4424,-2.4415,-2.4451,-2.4447,-2.4467,-2.4465,-2.4462,-2.4447,-2.4468,-2.4478,-2.4564,-2.4627,-2.4502,-2.4507,-2.479,-2.4797,-2.4803,-2.4908,0,0,0,0,0,0,-2.4336,-2.4355,-2.44,-2.4413,-2.4427,-2.4546,-2.4455,-2.4451,-2.4478,-2.4468,-2.4486,-2.4485,-2.4465,-2.4555,-2.4569,-2.4633,-2.4512,-2.4785,-2.4793,-2.4801,-2.4899,-2.4918,-2.4934,0,0,0,0,0,-2.4331,-2.4428,-2.4403,-2.4418,-2.4484,-2.455,-2.4558,-2.4533,-2.4483,-2.4529,-2.4527,-2.4484,-2.4618,-2.4565,-2.458,-2.4646,-2.478,-2.4791,-2.4801,-2.4892,-2.4914,-2.4933,0,0,0,0,0,0,-2.4424,-2.4429,-2.4401,-2.4506,-2.4528,-2.4536,-2.4592,-2.4559,-2.4595,-2.4585,-2.4553,-2.4558,-2.465,-2.4656,-2.4597,-2.4762,-2.469,-2.4704,-2.4754,-2.4776,-2.4793,-2.479,-2.4517,0,0,0,0,0,-2.4456,-2.4509,-2.4511,-2.4603,-2.4615,-2.4602,-2.463,-2.4609,-2.4631,-2.464,-2.4644,-2.4667,-2.4713,-2.4745,-2.4788,-2.49,-2.4902,-2.4952,-2.497,-2.4984,-2.4996,-2.5054,-2.5077,-2.4839,-2.4839,-2.4839,0,0,-2.4524,-2.4534,-2.4569,-2.4622,-2.4636,-2.4691,-2.4611,-2.4673,-2.4713,-2.4649,-2.473,-2.4734,-2.4757,-2.4856,-2.49,-2.4864,-2.5062,-2.4997,-2.5008,-2.5013,-2.5067,-2.509,-2.511,-2.4846,-2.4845,-2.4844,0,0,-2.4676,-2.4689,-2.4767,-2.4783,-2.4806,-2.4796,-2.4815,-2.4828,-2.4828,-2.4909,-2.4861,-2.4909,-2.499,-2.5008,-2.5028,-2.5185,-2.5147,-2.52,-2.5291,-2.5348,-2.5367,-2.5383,-2.5439,-2.5459,-2.5212,-2.5213,-2.5213,0,-2.4758,-2.4839,-2.4811,-2.4876,-2.49,-2.4844,-2.4922,-2.4939,-2.4975,-2.4993,-2.4952,-2.5052,-2.5064,-2.5166,-2.5204,-2.5222,-2.5242,-2.5198,-2.5367,-2.5383,-2.5398,-2.545,-2.5471,-2.5219,-2.5218,-2.5218,-2.5217,0,-2.4938,-2.4995,-2.5055,-2.5091,-2.5121,-2.5193,-2.5175,-2.5209,-2.5185,-2.518,-2.5262,-2.5274,-2.5318,-2.534,-2.5318,-2.5439,-2.5416,-2.5372,-2.5299,-2.5427,-2.5476,-2.5496,-2.5228,-2.5226,-2.5224,-2.5222,0,0,-2.5151,-2.5169,-2.5192,-2.5207,-2.5227,-2.5271,-2.5339,-2.5381,-2.5411,-2.5438,-2.5494,-2.5564,-2.5522,-2.5545,-2.5524,-2.5574,-2.5697,-2.5523,-2.5523,-2.5555,-2.583,-2.5863,-2.5887,-2.5672,-2.5675,-2.5678,-2.5828,0,-2.5301,-2.5419,-2.5395,-2.551,-2.5562,-2.5509,-2.5568,-2.5587,-2.5583,-2.5626,-2.5622,-2.5672,-2.5614,-2.5627,-2.5675,-2.5672,-2.5752,-2.5661,-2.5723,-2.5726,-2.5719,-2.5913,-2.5948,-2.6089,-2.5847,-2.585,-2.5853,0,-2.5493,-2.5526,-2.5647,-2.5658,-2.5679,-2.5733,-2.5769,-2.5811,-2.5831,-2.5825,-2.585,-2.5819,-2.5885,-2.5812,-2.5904,-2.5842,-2.5866,-2.5869,-2.5873,-2.5878,-2.5797,-2.5923,-2.6134,-2.6155,-2.5883,-2.588,-2.5878,0,-2.5636,-2.5711,-2.5792,-2.5807,-2.5822,-2.5861,-2.5869,-2.5885,-2.5912,-2.5943,-2.596,-2.6,-2.6021,-2.6052,-2.6032,-2.5981,-2.6127,-2.6052,-2.6123,-2.6124,-2.6156,-2.6154,-2.6374,-2.6172,-2.6172,-2.6171,-2.6171,0,-2.5807,-2.5882,-2.5856,-2.5906,-2.5989,-2.596,-2.6042,-2.6044,-2.6059,-2.6108,-2.6064,-2.6111,-2.6082,-2.6126,-2.6111,-2.6188,-2.6199,-2.6195,-2.619,-2.6199,-2.6199,-2.6214,-2.6203,-2.6177,-2.6176,-2.6175,-2.6174,0,-2.598,-2.5966,-2.6051,-2.6058,-2.6061,-2.6122,-2.6128,-2.6174,-2.6167,-2.623,-2.6242,-2.6231,-2.6281,-2.6264,-2.6318,-2.6307,-2.6406,-2.6388,-2.6399,-2.6395,-2.6466,-2.6459,-2.6702,-2.6732,-2.6512,-2.6514,-2.6516,0,-2.609,-2.6147,-2.616,-2.6189,-2.6201,-2.6249,-2.6276,-2.6249,-2.6279,-2.6305,-2.6348,-2.6394,-2.643,-2.6512,-2.6508,-2.6548,-2.6531,-2.6613,-2.6537,-2.6544,-2.6532,-2.6528,-2.6533,-2.6629,-2.6631,-2.6633,-2.6635,0,-2.6286,-2.6276,-2.6316,-2.6355,-2.6388,-2.6417,-2.6441,-2.6468,-2.6442,-2.6478,-2.6528,-2.6556,-2.661,-2.6656,-2.6692,-2.6699,-2.6663,-2.6659,-2.6677,-2.6687,-2.6691,-2.6689,-2.644,-2.6654,-2.6652,-2.665,-2.6649,-2.6649,-2.6431,-2.6478,-2.6495,-2.6541,-2.6557,-2.6581,-2.6624,-2.6622,-2.6663,-2.6705,-2.6687,-2.6745,-2.6762,-2.6806,-2.6819,-2.6864,-2.6832,-2.6859,-2.6865,-2.6872,-2.6881,-2.6684,-2.687,-2.687,-2.6869,-2.6869,-2.6868,0,-2.6624,-2.6632,-2.6675,-2.671,-2.6747,-2.6709,-2.6734,-2.6767,-2.6818,-2.6837,-2.6873,-2.693,-2.6974,-2.6973,-2.7014,-2.705,-2.7034,-2.7061,-2.7058,-2.706,-2.6908,-2.6888,-2.7073,-2.7073,-2.7073,-2.7073,-2.7073,-2.7073,-2.6729,-2.6807,-2.6799,-2.6884,-2.6891,-2.6947,-2.6965,-2.6986,-2.7001,-2.7067,-2.7103,-2.7102,-2.7113,-2.7154,-2.7192,-2.7191,-2.7208,-2.7241,-2.7234,-2.7091,-2.7071,-2.7052,-2.7032,-2.7245,-2.7246,-2.7382,-2.7383,-2.7384]},{"header":{"parameterUnit":"m.s-1","parameterCategory":1,"la1":30.2991,"la2":30.254,"lo1":-89.0895,"lo2":-89.0444,"dy":0.0017,"dx":0.0017,"nx":28,"ny":28,"refTime":"2024-03-29T09:00:00:Z","depth":0,"parameterNumber":3,"parameterNumberName":"V-component_of_WINDS"},"data":[0,0,0,0,0,0,0,0,0,0,0,0,0,0,0,0,0,0,0,0,0,0,0,0,0,0,0,0,0,0,0,0,0,0,0,0,0,0,0,0,0,0,0,0,0,0,0,0,0,0,0,0,0,0,0,0,0,0,-2.2952,-2.2953,0,-2.3015,-2.3015,-2.3016,-2.3014,-2.3014,-2.3013,-2.3012,-2.3073,-2.3075,-2.3077,0,0,0,0,0,0,0,0,0,0,0,0,0,-2.2828,-2.283,-2.2952,-2.2953,-2.2954,-2.3015,-2.3015,-2.3016,-2.3015,-2.3014,-2.3013,-2.3012,-2.3072,-2.3075,-2.3077,0,0,0,0,0,0,0,0,0,0,0,0,0,-2.2885,-2.2831,-2.2952,-2.296,-2.2962,-2.3014,-2.3016,-2.3017,-2.3015,-2.3014,-2.3012,-2.3011,-2.3071,-2.3074,-2.3078,-2.3125,0,0,-2.3089,-2.309,0,0,0,0,0,0,0,0,-2.2882,-2.289,-2.2958,-2.296,-2.2962,-2.3006,-2.2994,-2.3053,-2.3015,-2.2995,-2.3012,-2.301,-2.3051,-2.3056,-2.3071,-2.3128,-2.3131,-2.3089,-2.3091,-2.3093,-2.3094,0,0,0,0,0,0,0,-2.2878,-2.2887,-2.2977,-2.2959,-2.2961,-2.296,-2.2966,-2.3005,-2.3029,-2.2996,-2.2996,-2.3004,-2.3052,-2.3067,-2.3072,-2.3132,-2.3089,-2.3092,-2.3094,-2.3096,-2.323,-2.3231,0,0,0,0,0,0,-2.2873,-2.2884,-2.2975,-2.2979,-2.2918,-2.2963,-2.2971,-2.2993,-2.3029,-2.3033,-2.3005,-2.3004,-2.3062,-2.3068,-2.3074,-2.3131,-2.3093,-2.3096,-2.3098,-2.3229,-2.323,-2.3232,0,0,0,0,0,0,-2.287,-2.2881,-2.2972,-2.2931,-2.2943,-2.2967,-2.2991,-2.2995,-2.301,-2.3035,-2.3039,-2.3017,-2.3061,-2.3069,-2.3113,-2.3133,-2.3098,-2.3101,-2.3227,-2.3229,-2.3231,-2.3247,0,0,0,0,0,0,-2.2866,-2.288,-2.2899,-2.2932,-2.2945,-2.3011,-2.2993,-2.2997,-2.3017,-2.3016,-2.3047,-2.3051,-2.306,-2.3107,-2.3116,-2.3138,-2.3104,-2.3225,-2.3228,-2.3231,-2.3244,-2.3249,-2.3253,0,0,0,0,0,-2.2862,-2.29,-2.29,-2.2911,-2.297,-2.3012,-2.302,-2.3031,-2.3018,-2.3037,-2.3053,-2.305,-2.313,-2.3112,-2.3122,-2.3145,-2.3224,-2.3227,-2.323,-2.3242,-2.3248,-2.3253,0,0,0,0,0,0,-2.2869,-2.2905,-2.2905,-2.2955,-2.2981,-2.3012,-2.3036,-2.3036,-2.3065,-2.3063,-2.3074,-2.3081,-2.3124,-2.3139,-2.3118,-2.3192,-2.3175,-2.318,-2.3181,-2.3186,-2.3191,-2.3186,-2.3107,0,0,0,0,0,-2.2876,-2.2909,-2.2938,-2.298,-2.2993,-2.3012,-2.3031,-2.3037,-2.3064,-2.3074,-2.3093,-2.3118,-2.3149,-2.3168,-2.3198,-2.3247,-2.3253,-2.3267,-2.3271,-2.3275,-2.3279,-2.3304,-2.3311,-2.3242,-2.3242,-2.3242,0,0,-2.2892,-2.2916,-2.2935,-2.2982,-2.3002,-2.3035,-2.3021,-2.3056,-2.308,-2.3079,-2.3122,-2.3136,-2.3165,-2.3211,-2.3232,-2.3224,-2.3299,-2.3279,-2.3281,-2.3284,-2.3308,-2.3315,-2.3321,-2.3244,-2.3244,-2.3244,0,0,-2.2936,-2.2958,-2.2995,-2.3016,-2.3047,-2.306,-2.3069,-2.31,-2.311,-2.3153,-2.3153,-2.318,-2.3233,-2.3253,-2.327,-2.3321,-2.3319,-2.3331,-2.3353,-2.3378,-2.3383,-2.3388,-2.3405,-2.3411,-2.3335,-2.3335,-2.3335,0,-2.2951,-2.3001,-2.3014,-2.3049,-2.3068,-2.307,-2.3107,-2.3126,-2.3165,-2.3178,-2.3169,-2.3235,-2.3254,-2.3304,-2.3316,-2.3331,-2.334,-2.3327,-2.3381,-2.3386,-2.3391,-2.3408,-2.3414,-2.3336,-2.3336,-2.3336,-2.3336,0,-2.3018,-2.3052,-2.3078,-2.3116,-2.3139,-2.3175,-2.3191,-2.3212,-2.3216,-2.3229,-2.3272,-2.3295,-2.3329,-2.3342,-2.3346,-2.3392,-2.3386,-2.3379,-2.3362,-2.3399,-2.3414,-2.3421,-2.3338,-2.3337,-2.3337,-2.3337,0,0,-2.3068,-2.3113,-2.3122,-2.3139,-2.3174,-2.32,-2.3235,-2.3269,-2.3287,-2.3313,-2.3342,-2.3386,-2.338,-2.3399,-2.3405,-2.3427,-2.3465,-2.3417,-2.3418,-2.3425,-2.3516,-2.3521,-2.3528,-2.3464,-2.3465,-2.3466,-2.3513,0,-2.3116,-2.3179,-2.3191,-2.3246,-2.3277,-2.3279,-2.3309,-2.3333,-2.3346,-2.3373,-2.3387,-2.3418,-2.3408,-2.3419,-2.3441,-2.3456,-2.3483,-2.3453,-2.3489,-2.3491,-2.3482,-2.3536,-2.3541,-2.3585,-2.352,-2.3521,-2.3522,0,-2.318,-2.3209,-2.3267,-2.3297,-2.331,-2.3337,-2.3369,-2.3396,-2.3422,-2.343,-2.3451,-2.3455,-2.349,-2.3472,-2.3519,-2.3498,-2.3514,-2.3523,-2.3525,-2.3528,-2.3508,-2.354,-2.3599,-2.3605,-2.3532,-2.3531,-2.353,0,-2.321,-2.3263,-2.3305,-2.3319,-2.3356,-2.3374,-2.339,-2.3415,-2.3435,-2.3462,-2.3474,-2.3505,-2.3521,-2.3544,-2.3555,-2.3542,-2.3602,-2.3585,-2.3608,-2.3608,-2.362,-2.3619,-2.3681,-2.3631,-2.3631,-2.3631,-2.3631,0,-2.3261,-2.3296,-2.3319,-2.3344,-2.3383,-2.3395,-2.3433,-2.3448,-2.3471,-2.3498,-2.3501,-2.3526,-2.354,-2.3567,-2.3576,-2.3613,-2.3621,-2.3627,-2.3629,-2.3626,-2.3625,-2.3636,-2.3633,-2.3633,-2.3633,-2.3632,-2.3632,0,-2.3301,-2.3317,-2.3362,-2.3393,-2.3401,-2.3429,-2.3454,-2.3478,-2.3491,-2.3525,-2.3534,-2.3554,-2.3586,-2.3599,-2.3638,-2.3644,-2.3686,-2.3686,-2.3678,-2.3678,-2.37,-2.3697,-2.377,-2.378,-2.3725,-2.3725,-2.3726,0,-2.3332,-2.3359,-2.3393,-2.3412,-2.3428,-2.3459,-2.3479,-2.3492,-2.3512,-2.3544,-2.3564,-2.3596,-2.3622,-2.3672,-2.3689,-2.3719,-2.3719,-2.3743,-2.3723,-2.372,-2.3718,-2.3716,-2.3718,-2.3746,-2.3746,-2.3747,-2.3747,0,-2.3386,-2.3392,-2.3422,-2.3454,-2.3478,-2.3503,-2.3528,-2.3543,-2.356,-2.3582,-2.3615,-2.3636,-2.3676,-2.3707,-2.3737,-2.3752,-2.3752,-2.3753,-2.376,-2.3757,-2.3751,-2.3753,-2.3686,-2.3751,-2.3751,-2.3751,-2.375,-2.375,-2.3421,-2.3445,-2.3473,-2.3505,-2.3525,-2.3548,-2.3572,-2.3588,-2.3616,-2.365,-2.3656,-2.3691,-2.3715,-2.3756,-2.3772,-2.3799,-2.3793,-2.3803,-2.3805,-2.3807,-2.3808,-2.3747,-2.3804,-2.3804,-2.3804,-2.3804,-2.3804,0,-2.3474,-2.3492,-2.3522,-2.3557,-2.3582,-2.3581,-2.3608,-2.3629,-2.366,-2.3683,-2.3709,-2.3746,-2.3777,-2.3796,-2.3826,-2.3844,-2.3844,-2.3851,-2.3849,-2.3852,-2.3812,-2.3803,-2.385,-2.385,-2.385,-2.385,-2.385,-2.385,-2.3505,-2.3545,-2.3555,-2.3604,-2.3621,-2.3656,-2.3672,-2.3693,-2.3711,-2.3753,-2.3779,-2.3792,-2.3813,-2.3845,-2.3872,-2.3877,-2.3887,-2.3894,-2.3898,-2.386,-2.3855,-2.3851,-2.3842,-2.3897,-2.3897,-2.3936,-2.3937,-2.3937]}]]